N658KP KVAY-K2W6

Flight info

Callsign N658KP
Flight time N/A
Altitude 6000
Route ENZEW V213 ENO T224 SHLBK
Aircraft C310/L-SDFGR/S

Departure

Time 2026-04-19 01:19
Airport South Jersey Regional Airport (KVAY)

Arrival

Time N/A
Airport K2W6
Time Latitude Longitude Altitude Speed Heading
2026-04-19 00:52 39.94006 -74.84352 44 ft 0 kts 21°
2026-04-19 01:12 39.94008 -74.84351 44 ft 1 kts 22°
2026-04-19 01:12 39.94020 -74.84341 44 ft 2 kts 37°
2026-04-19 01:12 39.94038 -74.84326 44 ft 2 kts 18°
2026-04-19 01:12 39.94063 -74.84332 44 ft 4 kts 336°
2026-04-19 01:13 39.94100 -74.84350 44 ft 6 kts 341°
2026-04-19 01:13 39.94153 -74.84373 43 ft 8 kts 339°
2026-04-19 01:13 39.94216 -74.84389 43 ft 8 kts 48°
2026-04-19 01:13 39.94236 -74.84323 44 ft 6 kts 69°
2026-04-19 01:14 39.94251 -74.84269 45 ft 5 kts 69°
2026-04-19 01:14 39.94265 -74.84220 46 ft 5 kts 62°
2026-04-19 01:14 39.94306 -74.84219 46 ft 6 kts 339°
2026-04-19 01:14 39.94336 -74.84234 45 ft 0 kts 341°
2026-04-19 01:16 39.94361 -74.84235 45 ft 6 kts 32°
2026-04-19 01:17 39.94381 -74.84175 46 ft 8 kts 69°
2026-04-19 01:17 39.94402 -74.84101 48 ft 9 kts 69°
2026-04-19 01:17 39.94431 -74.84049 48 ft 6 kts 18°
2026-04-19 01:17 39.94459 -74.83988 49 ft 9 kts 48°
2026-04-19 01:18 39.94464 -74.83959 49 ft 9 kts 234°
2026-04-19 01:18 39.94346 -74.84338 43 ft 85 kts 257°
2026-04-19 01:18 39.94094 -74.85247 184 ft 120 kts 250°
2026-04-19 01:18 39.93780 -74.86350 638 ft 127 kts 249°
2026-04-19 01:19 39.93744 -74.87514 1137 ft 124 kts 289°
2026-04-19 01:19 39.93822 -74.88628 1716 ft 117 kts 268°
2026-04-19 01:19 39.93632 -74.89656 2249 ft 110 kts 255°
2026-04-19 01:19 39.93364 -74.90599 2756 ft 103 kts 253°
2026-04-19 01:20 39.93087 -74.91461 3232 ft 99 kts 246°
2026-04-19 01:20 39.92583 -74.92116 3695 ft 98 kts 235°
2026-04-19 01:20 39.92120 -74.92744 4149 ft 97 kts 203°
2026-04-19 01:20 39.91467 -74.93031 4601 ft 96 kts 204°
2026-04-19 01:21 39.90819 -74.93340 5049 ft 95 kts 205°
2026-04-19 01:21 39.90177 -74.93653 5482 ft 96 kts 206°
2026-04-19 01:21 39.89519 -74.93984 5893 ft 99 kts 206°
2026-04-19 01:21 39.88767 -74.94375 5995 ft 125 kts 206°
2026-04-19 01:22 39.87841 -74.94864 6005 ft 144 kts 206°
2026-04-19 01:22 39.86834 -74.95400 6001 ft 154 kts 206°
2026-04-19 01:22 39.85763 -74.95973 5997 ft 160 kts 206°
2026-04-19 01:22 39.84693 -74.96681 5997 ft 163 kts 214°
2026-04-19 01:23 39.83673 -74.97508 5994 ft 166 kts 214°
2026-04-19 01:23 39.82639 -74.98368 5993 ft 167 kts 215°
2026-04-19 01:23 39.81611 -74.99234 5993 ft 169 kts 215°
2026-04-19 01:23 39.80566 -75.00120 5992 ft 169 kts 215°
2026-04-19 01:24 39.79534 -75.01001 5992 ft 170 kts 215°
2026-04-19 01:24 39.78501 -75.01886 5992 ft 170 kts 215°
2026-04-19 01:24 39.77455 -75.02783 5992 ft 170 kts 215°
2026-04-19 01:24 39.76399 -75.03691 5992 ft 170 kts 215°
2026-04-19 01:25 39.75353 -75.04590 5991 ft 170 kts 215°
2026-04-19 01:25 39.74327 -75.05473 5976 ft 172 kts 215°
2026-04-19 01:25 39.73268 -75.06384 5975 ft 172 kts 215°
2026-04-19 01:25 39.72218 -75.07288 5973 ft 173 kts 215°
2026-04-19 01:26 39.71173 -75.08187 5973 ft 173 kts 215°
2026-04-19 01:26 39.70144 -75.09073 5973 ft 173 kts 215°
2026-04-19 01:26 39.69135 -75.09941 5973 ft 173 kts 215°
2026-04-19 01:26 39.68109 -75.10823 5972 ft 173 kts 215°
2026-04-19 01:27 39.67093 -75.11696 5972 ft 173 kts 216°
2026-04-19 01:27 39.66058 -75.12608 5972 ft 173 kts 216°
2026-04-19 01:27 39.65026 -75.13538 5972 ft 173 kts 217°
2026-04-19 01:27 39.63995 -75.14478 5979 ft 173 kts 217°
2026-04-19 01:28 39.62976 -75.15417 5981 ft 173 kts 217°
2026-04-19 01:28 39.61959 -75.16359 5981 ft 173 kts 217°
2026-04-19 01:28 39.60929 -75.17317 5981 ft 173 kts 217°
2026-04-19 01:28 39.59890 -75.18286 5981 ft 173 kts 217°
2026-04-19 01:29 39.58886 -75.19225 5981 ft 173 kts 217°
2026-04-19 01:29 39.57842 -75.20202 5981 ft 173 kts 217°
2026-04-19 01:29 39.56812 -75.21166 5981 ft 173 kts 218°
2026-04-19 01:29 39.55802 -75.22112 5981 ft 173 kts 218°
2026-04-19 01:30 39.54782 -75.23068 5981 ft 173 kts 218°
2026-04-19 01:30 39.53752 -75.24032 5980 ft 173 kts 218°
2026-04-19 01:30 39.52738 -75.24982 5980 ft 173 kts 218°
2026-04-19 01:30 39.51773 -75.25888 5980 ft 172 kts 217°
2026-04-19 01:31 39.50798 -75.26800 5980 ft 172 kts 217°
2026-04-19 01:31 39.49826 -75.27707 5980 ft 172 kts 217°
2026-04-19 01:31 39.48857 -75.28600 5980 ft 171 kts 217°
2026-04-19 01:31 39.47875 -75.29496 5980 ft 171 kts 216°
2026-04-19 01:32 39.46906 -75.30375 5980 ft 171 kts 216°
2026-04-19 01:32 39.45912 -75.31273 5980 ft 171 kts 216°
2026-04-19 01:32 39.44920 -75.32166 5980 ft 171 kts 216°
2026-04-19 01:32 39.43926 -75.33057 5980 ft 171 kts 216°
2026-04-19 01:33 39.42925 -75.33954 5980 ft 171 kts 216°
2026-04-19 01:33 39.41920 -75.34852 5980 ft 171 kts 216°
2026-04-19 01:33 39.40917 -75.35747 5955 ft 172 kts 216°
2026-04-19 01:33 39.39905 -75.36651 5945 ft 172 kts 216°
2026-04-19 01:34 39.38894 -75.37552 5943 ft 172 kts 216°
2026-04-19 01:34 39.37869 -75.38466 5943 ft 172 kts 216°
2026-04-19 01:34 39.36834 -75.39387 5943 ft 171 kts 216°
2026-04-19 01:34 39.35811 -75.40299 5942 ft 171 kts 216°
2026-04-19 01:35 39.34795 -75.41202 5942 ft 171 kts 216°
2026-04-19 01:35 39.33800 -75.42088 5942 ft 171 kts 216°
2026-04-19 01:35 39.32797 -75.42980 5942 ft 171 kts 216°
2026-04-19 01:35 39.31800 -75.43867 5942 ft 171 kts 216°
2026-04-19 01:36 39.30819 -75.44738 5942 ft 171 kts 216°
2026-04-19 01:36 39.29833 -75.45614 5942 ft 171 kts 216°
2026-04-19 01:36 39.28811 -75.46522 5942 ft 171 kts 216°
2026-04-19 01:36 39.27782 -75.47436 5942 ft 171 kts 216°
2026-04-19 01:37 39.26753 -75.48348 5942 ft 171 kts 216°
2026-04-19 01:37 39.25711 -75.49272 5942 ft 171 kts 216°
2026-04-19 01:37 39.24684 -75.50183 5940 ft 171 kts 216°
2026-04-19 01:37 39.23635 -75.51113 5942 ft 172 kts 217°
2026-04-19 01:38 39.22637 -75.52082 5942 ft 172 kts 218°
2026-04-19 01:38 39.21626 -75.53061 5942 ft 173 kts 218°
2026-04-19 01:38 39.20621 -75.54030 5942 ft 173 kts 218°
2026-04-19 01:38 39.19620 -75.54990 5942 ft 173 kts 218°
2026-04-19 01:39 39.18602 -75.55965 5942 ft 173 kts 218°
2026-04-19 01:39 39.17569 -75.56952 5941 ft 173 kts 218°
2026-04-19 01:39 39.16514 -75.57959 5941 ft 173 kts 218°
2026-04-19 01:39 39.15462 -75.58961 5941 ft 173 kts 218°
2026-04-19 01:40 39.14458 -75.59917 5931 ft 174 kts 218°
2026-04-19 01:40 39.13481 -75.60847 5924 ft 174 kts 218°
2026-04-19 01:40 39.12510 -75.61771 5923 ft 174 kts 218°
2026-04-19 01:40 39.11524 -75.62708 5923 ft 174 kts 218°
2026-04-19 01:41 39.10555 -75.63628 5923 ft 174 kts 218°
2026-04-19 01:41 39.09571 -75.64564 5923 ft 174 kts 218°
2026-04-19 01:41 39.08596 -75.65488 5934 ft 173 kts 218°
2026-04-19 01:41 39.07557 -75.66473 5943 ft 173 kts 218°
2026-04-19 01:42 39.06515 -75.67462 5944 ft 173 kts 218°
2026-04-19 01:42 39.05466 -75.68456 5944 ft 174 kts 218°
2026-04-19 01:42 39.03466 -75.70355 5927 ft 175 kts 218°
2026-04-19 01:43 39.02483 -75.71286 5926 ft 174 kts 218°
2026-04-19 01:43 39.01497 -75.72221 5925 ft 174 kts 218°
2026-04-19 01:43 39.00518 -75.73150 5925 ft 174 kts 218°
2026-04-19 01:43 38.99540 -75.74078 5925 ft 174 kts 218°
2026-04-19 01:44 38.98555 -75.75010 5925 ft 174 kts 218°
2026-04-19 01:44 38.97540 -75.75970 5939 ft 173 kts 218°
2026-04-19 01:44 38.96541 -75.76917 5943 ft 172 kts 218°
2026-04-19 01:44 38.95555 -75.77851 5943 ft 172 kts 218°
2026-04-19 01:45 38.94549 -75.78793 5937 ft 172 kts 217°
2026-04-19 01:45 38.93532 -75.79730 5918 ft 173 kts 217°
2026-04-19 01:45 38.92489 -75.80693 5916 ft 173 kts 217°
2026-04-19 01:45 38.91439 -75.81669 5915 ft 172 kts 217°
2026-04-19 01:46 38.90406 -75.82631 5915 ft 172 kts 218°
2026-04-19 01:46 38.89372 -75.83596 5919 ft 172 kts 218°
2026-04-19 01:46 38.88341 -75.84560 5919 ft 172 kts 218°
2026-04-19 01:46 38.87330 -75.85507 5919 ft 172 kts 218°
2026-04-19 01:47 38.86305 -75.86469 5919 ft 172 kts 218°
2026-04-19 01:47 38.85277 -75.87435 5919 ft 172 kts 218°
2026-04-19 01:47 38.84263 -75.88387 5919 ft 173 kts 218°
2026-04-19 01:47 38.83239 -75.89350 5919 ft 173 kts 218°
2026-04-19 01:48 38.82205 -75.90321 5919 ft 173 kts 218°
2026-04-19 01:48 38.81183 -75.91282 5919 ft 173 kts 218°
2026-04-19 01:48 38.80164 -75.92239 5919 ft 173 kts 218°
2026-04-19 01:48 38.79147 -75.93195 5919 ft 173 kts 218°
2026-04-19 01:49 38.78109 -75.94170 5919 ft 172 kts 218°
2026-04-19 01:49 38.77077 -75.95138 5918 ft 172 kts 218°
2026-04-19 01:49 38.76055 -75.96098 5918 ft 172 kts 218°
2026-04-19 01:49 38.75000 -75.97086 5918 ft 172 kts 218°
2026-04-19 01:50 38.73948 -75.98070 5918 ft 173 kts 218°
2026-04-19 01:50 38.72844 -75.99104 5918 ft 174 kts 218°
2026-04-19 01:50 38.71742 -76.00137 5918 ft 174 kts 218°
2026-04-19 01:50 38.70645 -76.01166 5918 ft 175 kts 218°
2026-04-19 01:51 38.69558 -76.02183 5918 ft 175 kts 218°
2026-04-19 01:51 38.68453 -76.03217 5918 ft 175 kts 218°
2026-04-19 01:51 38.67363 -76.04237 5918 ft 175 kts 218°
2026-04-19 01:51 38.66259 -76.05268 5918 ft 175 kts 218°
2026-04-19 01:52 38.65157 -76.06299 5917 ft 175 kts 218°
2026-04-19 01:52 38.64059 -76.07326 5911 ft 175 kts 218°
2026-04-19 01:52 38.62956 -76.08351 5908 ft 175 kts 218°
2026-04-19 01:52 38.61865 -76.09403 5909 ft 175 kts 221°
2026-04-19 01:53 38.60845 -76.10531 5840 ft 178 kts 224°
2026-04-19 01:53 38.59823 -76.11729 5705 ft 180 kts 224°
2026-04-19 01:53 38.58813 -76.12939 5539 ft 181 kts 225°
2026-04-19 01:53 38.57799 -76.14165 5375 ft 182 kts 225°
2026-04-19 01:54 38.56796 -76.15389 5207 ft 180 kts 226°
2026-04-19 01:54 38.55904 -76.16710 5038 ft 178 kts 226°
2026-04-19 01:54 38.55005 -76.17919 4880 ft 177 kts 225°
2026-04-19 01:54 38.54020 -76.19164 4710 ft 176 kts 225°
2026-04-19 01:55 38.53066 -76.20340 4547 ft 175 kts 225°
2026-04-19 01:55 38.52082 -76.21542 4378 ft 174 kts 224°
2026-04-19 01:55 38.51102 -76.22734 4209 ft 173 kts 224°
2026-04-19 01:55 38.50142 -76.23901 4042 ft 173 kts 224°
2026-04-19 01:56 38.49175 -76.25075 3874 ft 173 kts 223°
2026-04-19 01:56 38.48278 -76.26163 3717 ft 172 kts 223°
2026-04-19 01:56 38.47390 -76.27240 3562 ft 172 kts 223°
2026-04-19 01:56 38.46491 -76.28331 3404 ft 172 kts 222°
2026-04-19 01:57 38.45589 -76.29424 3247 ft 172 kts 222°
2026-04-19 01:57 38.44688 -76.30515 3089 ft 172 kts 221°
2026-04-19 01:57 38.43795 -76.31589 2934 ft 172 kts 220°
2026-04-19 01:57 38.42884 -76.32667 2777 ft 173 kts 220°
2026-04-19 01:58 38.41961 -76.33770 2618 ft 173 kts 220°
2026-04-19 01:58 38.41051 -76.34863 2462 ft 174 kts 220°
2026-04-19 01:58 38.40133 -76.35970 2304 ft 175 kts 220°
2026-04-19 01:58 38.39207 -76.37088 2145 ft 175 kts 219°
2026-04-19 01:59 38.38222 -76.38277 1977 ft 176 kts 219°
2026-04-19 01:59 38.37208 -76.39502 1806 ft 177 kts 219°
2026-04-19 01:59 38.36214 -76.40701 1638 ft 178 kts 219°
2026-04-19 01:59 38.35227 -76.41891 1473 ft 178 kts 219°
2026-04-19 02:00 38.34275 -76.43033 1314 ft 179 kts 217°
2026-04-19 02:00 38.33316 -76.44122 1139 ft 185 kts 232°
2026-04-19 02:00 38.32991 -76.45875 1023 ft 191 kts 258°
2026-04-19 02:00 38.32779 -76.47669 999 ft 185 kts 256°
2026-04-19 02:01 38.32504 -76.49404 997 ft 180 kts 254°
2026-04-19 02:01 38.32294 -76.51042 1063 ft 176 kts 268°
2026-04-19 02:01 38.32580 -76.52619 1198 ft 173 kts 285°
2026-04-19 02:01 38.33003 -76.54123 1231 ft 174 kts 287°
2026-04-19 02:02 38.33455 -76.55592 1208 ft 172 kts 288°
2026-04-19 02:02 38.33846 -76.56973 1245 ft 155 kts 284°
2026-04-19 02:02 38.34082 -76.58273 1264 ft 123 kts 257°
2026-04-19 02:02 38.33590 -76.59013 971 ft 104 kts 190°
2026-04-19 02:03 38.32906 -76.59192 917 ft 87 kts 182°
2026-04-19 02:03 38.32291 -76.59151 778 ft 86 kts 148°
2026-04-19 02:03 38.32013 -76.58411 573 ft 94 kts 88°
2026-04-19 02:03 38.32053 -76.57582 492 ft 86 kts 107°
2026-04-19 02:04 38.31870 -76.56845 373 ft 90 kts 110°
2026-04-19 02:04 38.31715 -76.56038 212 ft 83 kts 105°
2026-04-19 02:04 38.31598 -76.55370 134 ft 49 kts 101°
2026-04-19 02:04 38.31534 -76.55063 129 ft 16 kts 156°
2026-04-19 02:05 38.31473 -76.55039 130 ft 4 kts 97°
2026-04-19 02:05 38.31469 -76.55004 129 ft 3 kts 107°
2026-04-19 02:05 38.31458 -76.54961 128 ft 5 kts 121°
2026-04-19 02:05 38.31421 -76.54958 129 ft 5 kts 192°
2026-04-19 02:06 38.31397 -76.54984 130 ft 4 kts 251°
2026-04-19 02:06 38.31397 -76.55019 131 ft 4 kts 169°
2026-04-19 02:06 38.31402 -76.54987 130 ft 3 kts 97°
2026-04-19 02:06 38.31402 -76.54985 130 ft 0 kts 98°